Galloway, OH

10:26 AM EST on January 24, 2017 (GMT -0500)
Bolton

Weather History for KTZR - January, 2013

Change the Weather History Date:

Thursday, January 24, 2013

  Actual Average Record
Temperature  
Mean Temperature 16 °F -  
Max Temperature 21 °F 33 °F 55 °F (2002)
Min Temperature 12 °F 20 °F -2 °F (2000)
Degree Days  
Heating Degree Days 48    
Moisture  
Dew Point 9 °F    
Average Humidity 73    
Maximum Humidity 88    
Minimum Humidity 54    
Precipitation  
Precipitation 0.00 in - - ()
Sea Level Pressure  
Sea Level Pressure 30.35 in    
Wind  
Wind Speed 8 mph (NW)    
Max Wind Speed 20 mph    
Max Gust Speed 28 mph    
Visibility 9 miles    
Events Snow    
Averages and records for this station are not official NWS values.
T = Trace of Precipitation, MM = Missing Value Source: NWS Daily Summary

Daily Weather History Graph

Daily Weather History Graph

Search for Another Location

Airport or City:

Trip Planner

Search our weather history database for the weather conditions in past years. The results will help you decide how hot, cold, wet, or windy it might be!

Date:

Astronomy

Jan. 24, 2013 Rise Set
Actual Time 7:47 AM EST 5:42 PM EST
Civil Twilight 7:18 AM EST 6:11 PM EST
Nautical Twilight 6:45 AM EST 6:44 PM EST
Astronomical Twilight 6:13 AM EST 7:16 PM EST
Moon 3:43 PM EST 5:43 AM EST
Length of Visible Light 10h 53m
Length of Day
9h 55m
Waxing Gibbous, 94% of the Moon is Illuminated
Jan 24
Waxing Gibbous
Jan 26
Full
Feb 3
Last Quarter
Feb 10
New
Feb 17
First Quarter

Hourly Weather History & Observations

Time (EST) Temp. Windchill Dew Point Humidity Pressure Visibility Wind Dir Wind Speed Gust Speed Precip Events Conditions
12:15 AM 16.5 °F 11.0 °F 13.6 °F 88% 30.07 in 5.0 mi WSW 3.5 mph - N/A Snow Light Snow
12:35 AM 16.7 °F 8.3 °F 13.8 °F 88% 30.06 in 5.0 mi WSW 5.8 mph - N/A Snow Light Snow
12:55 AM 17.1 °F 10.0 °F 13.8 °F 87% 30.07 in 10.0 mi West 4.6 mph - N/A   Overcast
1:15 AM 17.6 °F 10.7 °F 13.6 °F 84% 30.08 in 10.0 mi West 4.6 mph - N/A   Overcast
1:35 AM 18.9 °F 5.3 °F 13.1 °F 78% 30.09 in 10.0 mi WNW 13.8 mph 17.3 mph N/A   Overcast
1:55 AM 18.5 °F 5.5 °F 13.8 °F 82% 30.10 in 7.0 mi West 12.7 mph 18.4 mph N/A   Overcast
2:15 AM 17.6 °F 5.7 °F 13.5 °F 84% 30.11 in 7.0 mi West 10.4 mph - N/A   Overcast
2:35 AM 17.6 °F 5.7 °F 13.5 °F 84% 30.12 in 7.0 mi West 10.4 mph - N/A   Overcast
2:55 AM 17.6 °F 6.4 °F 13.5 °F 84% 30.14 in 5.0 mi WNW 9.2 mph 17.3 mph N/A Snow Light Snow
3:15 AM 17.6 °F 3.7 °F 13.8 °F 85% 30.16 in 3.0 mi WNW 13.8 mph 21.9 mph N/A Snow Light Snow
3:35 AM 18.1 °F 3.4 °F 12.0 °F 77% 30.17 in 10.0 mi NW 16.1 mph 23.0 mph N/A Snow Light Snow
3:55 AM 17.8 °F 5.2 °F 11.1 °F 75% 30.19 in 10.0 mi NW 11.5 mph - N/A Snow Light Snow
4:15 AM 16.5 °F 3.0 °F 9.3 °F 73% 30.20 in 10.0 mi NW 12.7 mph - N/A   Mostly Cloudy
4:35 AM 15.4 °F 2.3 °F 8.6 °F 74% 30.22 in 10.0 mi NW 11.5 mph 18.4 mph N/A   Scattered Clouds
4:55 AM 14.9 °F -1.8 °F 8.4 °F 76% 30.24 in 10.0 mi NW 18.4 mph 27.6 mph N/A   Scattered Clouds
5:15 AM 14.7 °F -2.5 °F 8.6 °F 77% 30.26 in 10.0 mi NW 19.6 mph 24.2 mph N/A Snow Light Snow
5:35 AM 14.4 °F 0.2 °F 8.4 °F 77% 30.27 in 7.0 mi NW 12.7 mph 20.7 mph N/A Snow Light Snow
5:55 AM 13.5 °F -0.2 °F 7.5 °F 77% 30.30 in 10.0 mi NW 11.5 mph 20.7 mph N/A Snow Light Snow
6:15 AM 13.5 °F -0.2 °F 7.7 °F 78% 30.31 in 10.0 mi NW 11.5 mph 17.3 mph N/A Snow Light Snow
6:35 AM 13.6 °F -2.4 °F 7.7 °F 77% 30.33 in 10.0 mi NW 16.1 mph 20.7 mph N/A Snow Light Snow
6:55 AM 13.1 °F -3.7 °F 7.2 °F 77% 30.35 in 10.0 mi NNW 17.3 mph 23.0 mph N/A Snow Light Snow
7:15 AM 13.1 °F -2.6 °F 7.3 °F 78% 30.37 in 7.0 mi NNW 15.0 mph - N/A Snow Light Snow
8:50 AM 12.2 °F -0.2 °F 6.8 °F 79% 30.43 in 10.0 mi NW 9.2 mph - N/A   Clear
9:50 AM 12.2 °F -1.0 °F 6.8 °F 79% 30.48 in 10.0 mi NNW 10.4 mph - N/A   Scattered Clouds
10:50 AM 14.0 °F 2.9 °F 6.8 °F 73% 30.52 in 10.0 mi NW 8.1 mph - N/A   Clear
11:47 AM 17.6 °F 7.3 °F 6.8 °F 63% 30.55 in 10.0 mi NW 8.1 mph - N/A   Scattered Clouds
12:47 PM 17.6 °F 8.2 °F 6.8 °F 63% 30.53 in 10.0 mi NW 6.9 mph - N/A   Clear
1:47 PM 19.4 °F - 8.6 °F 63% 30.52 in 10.0 mi Calm Calm - N/A   Scattered Clouds
2:47 PM 21.2 °F 11.7 °F 6.8 °F 54% 30.51 in 10.0 mi North 8.1 mph - N/A   Scattered Clouds
3:54 PM 21.2 °F 11.7 °F 6.8 °F 54% 30.51 in 10.0 mi NNE 8.1 mph - N/A   Clear
4:50 PM 19.4 °F 11.5 °F 6.8 °F 58% 30.51 in 10.0 mi NE 5.8 mph - N/A   Clear
5:50 PM 17.6 °F - 5.0 °F 58% 30.52 in 10.0 mi Calm Calm - N/A   Clear
6:50 PM 17.6 °F - 5.0 °F 58% 30.53 in 10.0 mi Calm Calm - N/A   Clear
8:35 PM 17.4 °F 12.1 °F 7.0 °F 64% 30.51 in 10.0 mi NE 3.5 mph - N/A   Clear
8:55 PM 16.7 °F - 7.5 °F 67% 30.51 in 10.0 mi Calm Calm - N/A   Clear
9:15 PM 16.7 °F - 8.1 °F 69% 30.51 in 10.0 mi Calm Calm - N/A   Clear
9:35 PM 15.8 °F - 8.8 °F 74% 30.50 in 10.0 mi Calm Calm - N/A   Clear
9:55 PM 17.2 °F - 9.1 °F 71% 30.49 in 10.0 mi Calm Calm - N/A   Clear
10:15 PM 17.4 °F - 9.9 °F 72% 30.49 in 10.0 mi Calm Calm - N/A   Clear
10:35 PM 17.4 °F - 10.9 °F 76% 30.48 in 10.0 mi Calm Calm - N/A   Clear
10:55 PM 17.6 °F - 9.7 °F 71% 30.48 in 10.0 mi Calm Calm - N/A   Clear
11:15 PM 17.8 °F 10.9 °F 9.0 °F 68% 30.47 in 10.0 mi ENE 4.6 mph - N/A   Clear
11:35 PM 18.1 °F 12.9 °F 9.3 °F 68% 30.48 in 10.0 mi ENE 3.5 mph - N/A   Clear
11:55 PM 17.8 °F 10.9 °F 8.2 °F 66% 30.45 in 10.0 mi East 4.6 mph - N/A   Scattered Clouds